GW5395 Weather Reports


time (UTC)temp
C
wind
direction
speed
KPH
gust
KPH
rain 1hr
cm
rain 24hr
cm
rain mn
cm
humidity
%
barometer
mb
20260507140142 23 90 11.3 12.9 0.00 0.00 0.00
20260507135130 23 89 9.7 12.9 0.00 0.00 0.00
20260507134624 23 97 11.3 14.5 0.00 0.00 0.00
20260507134118 23 75 17.7 20.9 0.00 0.00 0.00
20260507133612 23 55 19.3 20.9 0.00 0.00 0.00
20260507133106 23 57 20.9 22.5 0.00 0.00 0.00
20260507132600 23 54 20.9 24.1 0.00 0.00 0.00
20260507132054 23 51 20.9 22.5 0.00 0.00 0.00
20260507131549 23 57 20.9 24.1 0.00 0.00 0.00
20260507130537 23 50 22.5 24.1 0.00 0.00 0.00
20260507130030 23 48 20.9 24.1 0.00 0.00 0.00
20260507125525 23 50 22.5 24.1 0.00 0.00 0.00
20260507125018 23 52 20.9 22.5 0.00 0.00 0.00
20260507124512 23 55 20.9 22.5 0.00 0.00 0.00
20260507124006 23 56 20.9 22.5 0.00 0.00 0.00
20260507122955 23 57 20.9 24.1 0.00 0.00 0.00
20260507121946 23 49 22.5 24.1 0.00 0.00 0.00
20260507120931 23 51 24.1 25.7 0.00 0.00 0.00
20260507120433 23 53 22.5 24.1 0.00 0.00 0.00
20260507115918 23 47 20.9 24.1 0.00 0.00 0.00
20260507115412 23 53 22.5 24.1 0.00 0.00 0.00
20260507113349 23 43 22.5 25.7 0.00 0.00 0.00
20260507112842 23 47 24.1 25.7 0.00 0.00 0.00
20260507112336 23 48 24.1 27.4 0.00 0.00 0.00
20260507111830 23 49 24.1 25.7 0.00 0.00 0.00
20260507111324 23 44 24.1 25.7 0.00 0.00 0.00
20260507110818 23 44 24.1 25.7 0.00 0.00 0.00
20260507110312 23 46 24.1 27.4 0.00 0.00 0.00
20260507104754 23 42 25.7 27.4 0.00 0.00 0.00
20260507104248 23 42 25.7 27.4 0.00 0.00 0.00
20260507103744 23 42 25.7 29.0 0.00 0.00 0.00
20260507103236 23 41 25.7 27.4 0.00 0.00 0.00
20260507102731 23 41 25.7 27.4 0.00 0.00 0.00
20260507102224 23 40 24.1 27.4 0.00 0.00 0.00
20260507101718 23 40 25.7 27.4 0.00 0.00 0.00
20260507101212 23 42 24.1 27.4 0.00 0.00 0.00
20260507100707 23 35 24.1 27.4 0.00 0.00 0.00
20260507100201 23 39 22.5 25.7 0.00 0.00 0.00
20260507095654 23 36 25.7 29.0 0.00 0.00 0.00
20260507095149 23 37 27.4 29.0 0.00 0.00 0.00
20260507094646 23 43 25.7 29.0 0.00 0.00 0.00
20260507094136 23 38 27.4 29.0 0.00 0.00 0.00
20260507093630 23 40 25.7 27.4 0.00 0.00 0.00
20260507093124 23 33 27.4 30.6 0.00 0.00 0.00
20260507092618 23 33 25.7 29.0 0.00 0.00 0.00
20260507092112 23 38 25.7 29.0 0.00 0.00 0.00
20260507091607 23 35 25.7 29.0 0.00 0.00 0.00
20260507091100 23 39 25.7 27.4 0.00 0.00 0.00
20260507090554 23 38 25.7 29.0 0.00 0.00 0.00
20260507090048 23 33 27.4 29.0 0.00 0.00 0.00
20260507085037 24 39 25.7 29.0 0.00 0.00 0.00
20260507084530 24 42 24.1 27.4 0.00 0.00 0.00
20260507084024 24 43 25.7 27.4 0.00 0.00 0.00
20260507083518 24 39 25.7 27.4 0.00 0.00 0.00
20260507083013 24 38 25.7 29.0 0.00 0.00 0.00
20260507082507 24 30 25.7 27.4 0.00 0.00 0.00
20260507080948 24 21 27.4 30.6 0.00 0.00 0.00
20260507080442 24 17 27.4 30.6 0.00 0.00 0.00
20260507075936 24 23 27.4 30.6 0.00 0.00 0.00
20260507074924 24 30 27.4 29.0 0.00 0.00 0.00
20260507074418 24 21 27.4 30.6 0.00 0.00 0.00
20260507073913 24 21 25.7 29.0 0.00 0.00 0.00
20260507073406 24 19 27.4 29.0 0.00 0.00 0.00
20260507072900 24 21 27.4 29.0 0.00 0.00 0.00
20260507072355 24 22 25.7 27.4 0.00 0.00 0.00
20260507071343 24 14 27.4 30.6 0.00 0.00 0.00
20260507070836 24 14 25.7 27.4 0.00 0.00 0.00
20260507070331 24 15 24.1 27.4 0.00 0.00 0.00
20260507065825 24 17 25.7 27.4 0.00 0.00 0.00
20260507064812 24 19 25.7 29.0 0.00 0.00 0.00
20260507064307 24 19 25.7 29.0 0.00 0.00 0.00
20260507063800 24 17 25.7 29.0 0.00 0.00 0.00
20260507063254 24 15 27.4 30.6 0.00 0.00 0.00
20260507062758 24 11 24.1 29.0 0.00 0.00 0.00
20260507061736 24 14 25.7 27.4 0.00 0.00 0.00
20260507061230 24 18 25.7 29.0 0.00 0.00 0.00
20260507060724 24 18 27.4 29.0 0.00 0.00 0.00
20260507060218 24 16 27.4 29.0 0.00 0.00 0.00
20260507055206 24 15 25.7 27.4 0.00 0.00 0.00
20260507054700 24 17 25.7 29.0 0.00 0.00 0.00
20260507054154 24 18 25.7 27.4 0.00 0.00 0.00
20260507053142 24 14 25.7 29.0 0.00 0.00 0.00
20260507052636 24 14 25.7 29.0 0.00 0.00 0.00
20260507051641 24 15 27.4 29.0 0.00 0.00 0.00
20260507051120 24 13 25.7 29.0 0.00 0.00 0.00
20260507050620 24 13 25.7 29.0 0.00 0.00 0.00
20260507050107 24 15 27.4 30.6 0.00 0.00 0.00
20260507045600 24 14 27.4 29.0 0.00 0.00 0.00
20260507044108 25 15 19.3 25.7 0.00 0.00 0.00
20260507043115 25 29 16.1 17.7 0.00 0.00 0.00
20260507042524 25 34 16.1 17.7 0.00 0.00 0.00
20260507042018 25 29 16.1 17.7 0.00 0.00 0.00
20260507041511 25 35 16.1 17.7 0.00 0.00 0.00
20260507040501 25 32 14.5 17.7 0.00 0.00 0.00
20260507035954 25 40 14.5 16.1 0.00 0.00 0.00
20260507035448 25 42 14.5 16.1 0.00 0.00 0.00
20260507034942 25 48 12.9 14.5 0.00 0.00 0.00
20260507034436 25 44 12.9 14.5 0.00 0.00 0.00
20260507033931 25 44 12.9 16.1 0.00 0.00 0.00
20260507033424 25 37 14.5 16.1 0.00 0.00 0.00
20260507030854 26 3 12.9 14.5 0.00 0.00 0.00
20260507030356 26 6 14.5 16.1 0.00 0.00 0.00
20260507025842 26 358 14.5 19.3 0.00 0.00 0.00
20260507025336 25 353 14.5 17.7 0.00 0.00 0.00
20260507023312 25 21 16.1 17.7 0.00 0.00 0.00
20260507022806 26 20 14.5 16.1 0.00 0.00 0.00
20260507022301 26 24 14.5 16.1 0.00 0.00 0.00
20260507021754 26 18 14.5 17.7 0.00 0.00 0.00
20260507020743 26 6 12.9 16.1 0.00 0.00 0.00
20260507020236 27 4 12.9 14.5 0.00 0.00 0.00
20260507015730 27 2 12.9 14.5 0.00 0.00 0.00
20260507015224 27 6 12.9 14.5 0.00 0.00 0.00
20260507014719 26 9 12.9 14.5 0.00 0.00 0.00
20260507014213 27 1 12.9 14.5 0.00 0.00 0.00
20260507013200 26 10 12.9 14.5 0.00 0.00 0.00
20260507012702 27 17 12.9 16.1 0.00 0.00 0.00
20260507012148 26 31 9.7 12.9 0.00 0.00 0.00
20260507011642 26 34 11.3 12.9 0.00 0.00 0.00
20260507011145 26 40 9.7 12.9 0.00 0.00 0.00
20260507010631 26 38 9.7 12.9 0.00 0.00 0.00
20260507010124 27 40 11.3 12.9 0.00 0.00 0.00
20260507004606 27 30 11.3 12.9 0.00 0.00 0.00
20260507004100 27 34 9.7 11.3 0.00 0.00 0.00
20260507003555 27 32 9.7 12.9 0.00 0.00 0.00
20260507003048 27 34 8.0 11.3 0.00 0.00 0.00
20260507002543 27 29 9.7 12.9 0.00 0.00 0.00
20260507002036 27 28 11.3 12.9 0.00 0.00 0.00
20260507001531 27 29 9.7 11.3 0.00 0.00 0.00
20260507001024 26 31 11.3 12.9 0.00 0.00 0.00
20260507000518 26 34 11.3 12.9 0.00 0.00 0.00
20260507000012 26 29 9.7 12.9 0.00 0.00 0.00
20260506235515 26 31 9.7 12.9 0.00 0.00 0.00
20260506235000 26 23 11.3 12.9 0.00 0.00 0.00
20260506234454 26 31 12.9 14.5 0.00 0.00 0.00
20260506233948 26 21 12.9 14.5 0.00 0.00 0.00
20260506233442 26 30 14.5 16.1 0.00 0.00 0.00
20260506232936 26 25 12.9 14.5 0.00 0.00 0.00
20260506232431 26 16 14.5 16.1 0.00 0.00 0.00
20260506231924 26 29 12.9 14.5 0.00 0.00 0.00
20260506231418 26 32 12.9 14.5 0.00 0.00 0.00
20260506230912 26 32 11.3 14.5 0.00 0.00 0.00
20260506230407 26 36 11.3 12.9 0.00 0.00 0.00
20260506225904 26 39 11.3 14.5 0.00 0.00 0.00
20260506225354 26 39 11.3 14.5 0.00 0.00 0.00
20260506224848 25 47 12.9 16.1 0.00 0.00 0.00
20260506224351 26 44 11.3 14.5 0.00 0.00 0.00
20260506223836 25 49 14.5 16.1 0.00 0.00 0.00
20260506222824 25 54 14.5 16.1 0.00 0.00 0.00
20260506222319 25 49 12.9 14.5 0.00 0.00 0.00
20260506221820 25 42 11.3 14.5 0.00 0.00 0.00
20260506221306 26 38 11.3 14.5 0.00 0.00 0.00
20260506220800 25 40 12.9 14.5 0.00 0.00 0.00
20260506220254 25 34 12.9 16.1 0.00 0.00 0.00
20260506215242 25 42 12.9 14.5 0.00 0.00 0.00
20260506214240 25 30 11.3 14.5 0.00 0.00 0.00
20260506213724 26 35 11.3 14.5 0.00 0.00 0.00
20260506213218 26 31 9.7 11.3 0.00 0.00 0.00
20260506212712 26 27 11.3 12.9 0.00 0.00 0.00
20260506212206 26 35 9.7 12.9 0.00 0.00 0.00
20260506211154 26 36 9.7 11.3 0.00 0.00 0.00
20260506210648 26 32 9.7 12.9 0.00 0.00 0.00
20260506210142 26 27 9.7 12.9 0.00 0.00 0.00
20260506205636 26 31 9.7 12.9 0.00 0.00 0.00
20260506205130 26 39 9.7 11.3 0.00 0.00 0.00
20260506204119 26 36 8.0 11.3 0.00 0.00 0.00
20260506203106 26 49 9.7 11.3 0.00 0.00 0.00
20260506202600 26 56 9.7 11.3 0.00 0.00 0.00
20260506202054 26 45 9.7 11.3 0.00 0.00 0.00
20260506201041 26 60 9.7 11.3 0.00 0.00 0.00
20260506200536 26 59 9.7 11.3 0.00 0.00 0.00
20260506200030 26 53 9.7 9.7 0.00 0.00 0.00
20260506195525 26 54 8.0 9.7 0.00 0.00 0.00
20260506195018 26 44 6.4 8.0 0.00 0.00 0.00
20260506194511 26 37 6.4 8.0 0.00 0.00 0.00
20260506194007 26 29 6.4 6.4 0.00 0.00 0.00
20260506193459 26 33 6.4 6.4 0.00 0.00 0.00
20260506192954 26 36 6.4 8.0 0.00 0.00 0.00
20260506192448 26 40 6.4 8.0 0.00 0.00 0.00
20260506191942 26 38 6.4 6.4 0.00 0.00 0.00
20260506191436 26 33 4.8 6.4 0.00 0.00 0.00
20260506190929 26 30 4.8 6.4 0.00 0.00 0.00
20260506190424 25 24 4.8 6.4 0.00 0.00 0.00
20260506185918 25 20 6.4 6.4 0.00 0.00 0.00
20260506185415 25 7 4.8 6.4 0.00 0.00 0.00
20260506184906 25 358 4.8 4.8 0.00 0.00 0.00
20260506184408 25 358 3.2 4.8 0.00 0.00 0.00
20260506183348 25 354 3.2 4.8 0.00 0.00 0.00
20260506182842 25 5 3.2 4.8 0.00 0.00 0.00
20260506182336 25 14 3.2 4.8 0.00 0.00 0.00
20260506181325 25 318 1.6 3.2 0.00 0.00 0.00
20260506180827 25 311 3.2 3.2 0.00 0.00 0.00
20260506180312 25 300 3.2 3.2 0.00 0.00 0.00
20260506175806 24 305 3.2 3.2 0.00 0.00 0.00
20260506175300 24 264 4.8 4.8 0.00 0.00 0.00
20260506174248 23 260 4.8 6.4 0.00 0.00 0.00
20260506173742 23 269 4.8 4.8 0.00 0.00 0.00
20260506172225 23 246 4.8 8.0 0.00 0.00 0.00
20260506170706 22 218 3.2 4.8 0.00 0.00 0.00
20260506164642 22 128 8.0 9.7 0.00 0.00 0.00
20260506164136 22 125 11.3 12.9 0.00 0.00 0.00
20260506163142 21 124 12.9 14.5 0.00 0.00 0.00
20260506162618 21 119 9.7 11.3 0.00 0.00 0.00
20260506155534 21 113 8.0 9.7 0.00 0.00 0.00
20260506155035 21 126 9.7 11.3 0.00 0.00 0.00
20260506154015 20 140 11.3 14.5 0.00 0.00 0.00
20260506152507 20 155 11.3 12.9 0.00 0.00 0.00
20260506151446 20 144 11.3 14.5 0.00 0.00 0.00
20260506145928 20 139 9.7 12.9 0.00 0.00 0.00
20260506145422 20 138 11.3 14.5 0.00 0.00 0.00
20260506144916 20 136 11.3 12.9 0.00 0.00 0.00
20260506144410 21 144 11.3 12.9 0.00 0.00 0.00
20260506143904 20 151 9.7 12.9 0.00 0.00 0.00
20260506143358 21 156 8.0 11.3 0.00 0.00 0.00
20260506142853 21 150 9.7 11.3 0.00 0.00 0.00
20260506142346 20 159 11.3 14.5 0.00 0.00 0.00
20260506141848 21 164 12.9 14.5 0.00 0.00 0.00
20260506140836 20 160 11.3 14.5 0.00 0.00 0.00